This is the latest recevied weather packets stored in our database for station/object IW2LSY-11. If no packets are shown the sender has not sent any weather packets the latest 10 day(s).
| Time | Temp. | Humidity | Pressure | Rain* | Wind** | Luminosity | Snow |
|---|---|---|---|---|---|---|---|
| 1777390206 | 20.56° C | 46% | 1015.2 hPa | - | - | 429 W/m² | - |
| 1777389607 | 20.56° C | 45% | 1015.2 hPa | - | - | 430 W/m² | - |
| 1777389007 | 21.67° C | 45% | 1015.1 hPa | - | - | 432 W/m² | - |
| 1777388408 | 21.11° C | 45% | 1015.2 hPa | - | - | 433 W/m² | - |
| 1777387809 | 21.11° C | 44% | 1015.3 hPa | - | - | 433 W/m² | - |
| 1777387209 | 21.67° C | 41% | 1015.4 hPa | - | - | 432 W/m² | - |
| 1777386610 | 22.22° C | 41% | 1015.5 hPa | - | - | 433 W/m² | - |
| 1777386011 | 22.22° C | 42% | 1015.6 hPa | - | - | 434 W/m² | - |
| 1777385411 | 21.67° C | 44% | 1015.7 hPa | - | - | 435 W/m² | - |
| 1777384812 | 21.67° C | 43% | 1015.9 hPa | - | - | 434 W/m² | - |
| 1777384213 | 21.67° C | 43% | 1016.1 hPa | - | - | 435 W/m² | - |
| 1777383614 | 21.67° C | 44% | 1016.1 hPa | - | - | 435 W/m² | - |
| 1777383014 | 21.67° C | 45% | 1016.2 hPa | - | - | 436 W/m² | - |
| 1777382414 | 22.22° C | 46% | 1016.3 hPa | - | - | 435 W/m² | - |
| 1777381814 | 21.11° C | 48% | 1016.4 hPa | - | - | 436 W/m² | - |
| 1777381215 | 20° C | 49% | 1016.5 hPa | - | - | 437 W/m² | - |
| 1777380615 | 18.89° C | 54% | 1016.6 hPa | - | - | 437 W/m² | - |
| 1777380004 | 18.33° C | 55% | 1016.7 hPa | - | - | 436 W/m² | - |
| 1777379404 | 18.33° C | 54% | 1016.8 hPa | - | - | 438 W/m² | - |
| 1777378804 | 18.33° C | 62% | 1016.9 hPa | - | - | 438 W/m² | - |
| 1777378205 | 17.22° C | 64% | 1017 hPa | - | - | 439 W/m² | - |
| 1777377605 | 17.22° C | 69% | 1017.2 hPa | - | - | 440 W/m² | - |
| 1777377005 | 16.67° C | 63% | 1017.4 hPa | - | - | 441 W/m² | - |
| 1777376406 | 17.22° C | 67% | 1017.5 hPa | - | - | 441 W/m² | - |
| 1777375806 | 16.11° C | 75% | 1017.6 hPa | - | - | 443 W/m² | - |
* Rain since midnight (hover to see other rain measurements)
** Current wind speed in m/s (hover to see current wind gust speed)